Uitslag Bouwpunttriatlon top 3

# Naam Totaal
1 Dewilde Michael 01:48:45 83.90
2 Moonen Hans 01:49:03 82.55
3 Van Heirseele Steven 01:49:42 82.23
4 De Vrieze Bart 01:50:20 81.92
5 De Fré Jasper 01:52:07 81.05
6 Winten Gertjan 01:52:18 80.96
7 Martens Ruben 01:54:08 80.06
8 Pex Daan 01:54:14 80.01
9 Bonami Hannes 01:54:25 79.92
10 DE DECKER Bruno 01:54:33 79.85
11 Bogaert Mike 01:55:03 79.61
12 Heynssens Hans 01:55:34 79.35
13 Govaert Sam 01:55:39 79.31
14 Claeys Lorenz 01:56:11 79.05
15 Vanassche Marc 01:56:15 79.02
16 Malcolm Philippe 01:57:42 78.31
17 Driessen Elias 01:57:49 78.25
18 Goethals Ward 01:57:49 78.25
19 Haeghebaert Lode 01:58:23 77.97
20 Lasoen Filip 01:58:45 77.79
21 Staelens Dieter 01:59:50 77.26
22 Van der Plas Bram 01:59:51 77.25
23 Lemey Henk 02:00:23 76.99
24 Bouche Joel 02:00:57 76.71
25 Vermeersch Filip 02:01:06 76.64
26 Vierstraete Jurgen 02:01:54 76.24
27 Huysseune Luc 02:02:26 75.98
28 Naessens Dees 02:02:32 75.93
29 Dryepondt Peter 02:02:39 75.88
30 Van Nieuwenhuyse Bregt 02:02:42 75.85
31 Claeys Jack 02:03:00 75.70
32 Zenner Cédric 02:03:11 75.61
33 De Dobbelaere Jan 02:03:13 75.60
34 Loosveld Tom 02:04:19 75.06
35 Volders Philippe 02:04:26 75.00
36 Gouwy Dario 02:04:30 74.97
37 Smitz Michel 02:04:54 74.77
38 Vanparrys Marc 02:05:11 74.63
39 Ryde Marc 02:05:56 74.26
40 Dekeyser Steven 02:06:26 74.02
41 Van Buggenhout Pieterjan 02:06:46 73.85
42 Meul Matthias 02:07:00 73.74
43 Ottevaere Charlene 02:07:04 76.75
44 Nouwen Jan 02:08:21 73.08
45 Calebout Stefan 02:08:48 72.86
46 Lemey Hein 02:09:03 72.73
47 De Caluwé Yanick 02:09:17 72.62
48 Van Campenhout Carlo 02:09:22 72.58
49 Meire Kathleen 02:09:27 74.42
50 De Block Gino 02:09:27 72.54
51 De Lannoy Didier 02:09:32 72.50
52 De Hon Erwin 02:09:40 72.43
53 Vanderschaeghe Dries 02:10:09 72.19
54 Bracke Domien 02:10:13 72.16
55 Aers Bart 02:10:21 72.09
56 Youri Groosman 02:10:28 72.04
57 Moyson Patrick 02:10:42 71.92
58 De Smet John 02:11:10 71.69
59 Verbeke Bert 02:11:17 71.64
60 Van der Elst Peter 02:11:21 71.60
61 Demets Ward 02:11:38 71.46
62 Reynaert Femke 02:11:54 73.26
63 Claeys Yves 02:12:05 71.24
64 Blondeel Reggie 02:12:19 71.13
65 Vervaet Martin 02:12:23 71.10
66 Fore Jurgen 02:12:29 71.05
67 Maton Cedric 02:12:36 70.99
68 Wils Joppe 02:12:38 70.97
69 Christiaens Filip 02:12:45 70.92
70 Vermeulen Bram 02:13:01 70.79
71 De Munck Ellen 02:13:13 72.63
72 Goossens Etienne 02:13:43 70.44
73 Peirens Peter 02:13:50 70.38
74 Dupon Kristof 02:14:10 70.22
75 Haeghebaert Robin 02:14:25 70.10
76 Béatse Dries 02:14:28 70.07
77 Verbandt Hugo 02:14:49 69.90
78 Roobrouck Jo 02:15:04 69.78
79 De Vidts Peter 02:15:09 69.74
80 Chaltin Joris 02:15:14 69.70
81 Braeckman Bert 02:15:24 69.61
82 Desomviele Lieven 02:15:36 69.52
83 Hendrikse Henk 02:16:06 69.27
84 Verhulst Jan 02:16:58 68.85
85 Mariën Bram 02:17:16 68.70
86 Librecht Kim 02:17:41 68.49
87 Vervoort Wendy 02:17:43 70.49
88 Leyman Gijs 02:17:48 68.44
89 De Decker Bart 02:17:49 68.43
90 Bucquoye Bernard 02:17:56 68.37
91 Geldhof Wesley 02:18:10 68.26
92 De Reu David 02:18:17 68.20
93 Vervaet Jocelyne 02:18:22 70.19
94 Roels Pieter 02:18:22 68.16
95 Van Wynsberge Eddy 02:18:48 67.95
96 Lagrouw Arjan 02:19:14 67.73
97 Everaerts Tim 02:19:15 67.72
98 Peere Koen 02:19:16 67.72
99 Smessaert Bart 02:19:24 67.65
100 Foré Toyny 02:19:39 67.53
101 Beerens Steven 02:19:52 67.42
102 D'hont Patrick 02:20:01 67.35
103 Verlodt Ingeborg 02:20:24 69.22
104 De Reu Maarten 02:20:26 67.14
105 Sercu Jeannick 02:20:27 67.14
106 Van Hecke Peter 02:20:28 67.13
107 Annaert Marc 02:20:32 67.09
108 Oosterlinck Frank 02:21:11 66.78
109 Jaques Joakim 02:21:21 66.69
110 Vercruysse Marc 02:21:26 66.65
111 Vanrysselberghe Philippe 02:21:28 66.64
112 Flament Luc 02:21:33 66.60
113 Stroo Nico 02:21:35 66.58
114 Stobbeleir Erik 02:21:38 66.55
115 De Meester Sven 02:22:09 66.30
116 Liu Hao 02:22:17 66.24
117 Van De Voorde Patrick 02:22:23 66.19
118 D'hoore Daniel 02:23:09 65.81
119 Tesseur Jef 02:23:11 65.79
120 De Meulemeester Inge 02:23:11 67.90
121 Van Osselaer Jan 02:23:13 65.78
122 Minnebo Arne 02:23:55 65.43
123 De Keer Peter 02:24:10 65.31
124 Janssens Steven 02:24:35 65.11
125 Van De Kerckhove Annelore 02:24:44 67.16
126 Driesen Bert 02:24:50 64.98
127 Strobbe Peter 02:24:55 64.94
128 Sevenois Wim 02:24:56 64.93
129 Cappuyns Ann 02:25:01 67.03
130 Rangan Giancarlo 02:25:02 64.89
131 Bonte Stefaan 02:25:07 64.84
132 Deschepper Curt 02:25:15 64.78
133 Van Den Berghe Bram 02:25:18 64.75
134 Cantre Glenn 02:26:03 64.39
135 Verdegem Johan 02:26:27 64.19
136 Grandmont Sabine 02:26:30 66.32
137 Cuypers Katrijn 02:26:30 64.16
138 Cosyn Frank 02:26:40 64.08
139 De Loof Pieter 02:26:48 64.02
140 Vandendorpe Fauve 02:26:51 66.16
141 Van Cotthem Lieve 02:26:53 66.14
142 Demasiéres Ann 02:27:15 65.97
143 De Jaeger-Braet Els 02:27:31 65.84
144 Seeuws Bernard 02:27:45 63.55
145 Dubois Roger 02:28:11 63.34
146 Malfait Bart 02:29:06 62.89
147 De Groote Peter 02:29:42 62.59
148 Vermeiren Karel 02:29:59 62.45
149 Vandepitte Cedric 02:30:47 62.06
150 Van Brabant Bert 02:30:56 61.99
151 Meert Carl 02:32:06 61.42
152 Vannieuwenhuyze An 02:32:09 63.64
153 Quidè Björn 02:32:19 61.31
154 De Vreese Patrik 02:32:40 61.14
155 Bellenge Nino 02:33:13 60.87
156 Noët Heifi 02:33:24 63.05
157 Himpe Mathieu 02:34:46 60.11
158 Bosschaert Jan 02:35:08 59.93
159 Goorman Jeroen 02:35:08 59.93
160 Segers Patrick 02:35:31 59.74
161 Clarys Barbara 02:35:34 62.02
162 De Maesschalck Pieter 02:35:47 59.61
163 Vankelecom Jeroen 02:35:55 59.54
164 Verdonck Joyce 02:36:05 61.78
165 De Groote Bart 02:36:07 59.44
166 Reunes Wim 02:36:15 59.38
167 Car Katie 02:36:52 61.40
168 Van Den Neucker Luc 02:37:18 58.86
169 Everaert Mathias 02:37:39 58.69
170 Messens Serge 02:37:51 58.59
171 Van Summeren Maycke 02:39:05 60.35
172 Provoost Geert 02:39:05 57.99
173 Van De Walle Mario 02:39:42 57.68
174 Driesen Stijn 02:39:58 57.55
175 Boussemaere Roland 02:39:59 57.54
176 Henckens Geertje 02:41:24 59.25
177 Somers Stijn 02:41:53 56.61
178 Van Poecke Ellen 02:42:17 58.83
179 Bossuyt Stijn 02:42:34 56.28
180 Lauwers Guillaume 02:42:47 56.17
181 Delmotte Bart 02:43:22 55.88
182 Bovyn Raf 02:45:33 54.81
183 Wilssens Nele 02:45:33 57.28
184 Ardeel Hans 02:45:56 54.62
185 Davit Katelijne 02:47:37 56.30
186 de smet maarten 02:53:07 51.10
187 De Bolle Els 02:55:24 52.61
188 Meirsschaut Jelle 02:59:33 47.94
189 Van Meenen Claudine 03:00:04 49.89
190 De Baets Eddy-ray 03:01:41 46.39

Reacties

  • 4 jaar geleden

    Beste,

    Kan er nog ingeschreven worden?
    Ik ben nl geboren op 06/05/1988, maar kan me schijnbaar niet inschrijven voor de niet-licentie.

    Wat bedraagt de watertemperatuur nu?

    Alvast bedankt,

    Bert Carmeliet

  • 4 jaar geleden

    Ik heb van de week ingeschreven en deze inschrijving uitgeprint. Tot op heden nog geen bevestigingsmail ontvangen. Klopt dit?

    Al vast bedankt, met sportieve groet,
    Dirk de Ruiter,
    Licentiehouder NTB
    SC de Zwinstreek, Sluis

  • 4 jaar geleden

    Beste

    Ik wil het inschrijvingsgeld betalen maar heb hiervoor uw IBAN code nodig. Op de bevestiging staat enkel het gewone bankrekeningnummer: 973-0569036-68.

    Hartelijk dank om dit door te geven aub.

    Marc Bogemans

  • 4 jaar geleden

    Inschrijven kan nog.
    Nog een 20- tal plaatsen vrij.
    Er mag inderdaad met tijdritfiets gereden worden.

    groeten
    Luc

  • 4 jaar geleden

    Beste,

    Is het nog mogelijk om in te schrijven?
    Dit is toch wedstrijd waar tijdritfiets toegelaten is?

    Sportieve groet,
    Klaas